Hourly Weather Rudaki

Today, 10 April, Saturday

Time Temperature Precipitation Wind Pressure Humidity
00:00 +1°C° 0 mm 5 mps 739 mmHg 66%
01:00 +1°C° 0 mm 5 mps 739 mmHg 68%
02:00 +1°C° 0 mm 5 mps 739 mmHg 70%
03:00 +1°C° 0 mm 5 mps 739 mmHg 72%
04:00 0°C° 0 mm 5 mps 739 mmHg 74%
05:00 0°C° 0 mm 5 mps 739 mmHg 77%
06:00 0°C° 0 mm 5 mps 739 mmHg 74%
07:00 +1°C° 0 mm 6 mps 739 mmHg 72%
08:00 +2°C° 0 mm 6 mps 739 mmHg 70%
09:00 +3°C° 0 mm 6 mps 739 mmHg 64%
10:00 +5°C° 0 mm 7 mps 739 mmHg 58%
11:00 +8°C° 0 mm 7 mps 739 mmHg 53%
12:00 +9°C° 0 mm 7 mps 739 mmHg 51%
13:00 +10°C° 0 mm 7 mps 739 mmHg 49%
14:00 +11°C° 0 mm 7 mps 739 mmHg 47%
15:00 +10°C° 0 mm 6 mps 739 mmHg 51%
16:00 +10°C° 0 mm 5 mps 739 mmHg 55%
17:00 +11°C° 0 mm 4 mps 739 mmHg 58%
18:00 +10°C° 0 mm 4 mps 739 mmHg 63%
19:00 +9°C° 0 mm 3 mps 739 mmHg 67%
20:00 +8°C° 0 mm 2 mps 740 mmHg 71%
21:00 +8°C° 0.1 mm 2 mps 740 mmHg 74%
22:00 +9°C° 0.1 mm 1 mps 740 mmHg 77%
23:00 +8°C° 0.1 mm 1 mps 740 mmHg 80%

Tomorrow, 11 April, Sunday

Time Temperature Precipitation Wind Pressure Humidity
00:00 +7°C° 0 mm 2 mps 740 mmHg 81%
01:00 +6°C° 0 mm 2 mps 741 mmHg 83%
02:00 +6°C° 0 mm 2 mps 741 mmHg 84%
03:00 +6°C° 0 mm 2 mps 741 mmHg 83%
04:00 +6°C° 0 mm 2 mps 741 mmHg 82%
05:00 +6°C° 0 mm 2 mps 742 mmHg 81%
06:00 +5°C° 0 mm 3 mps 742 mmHg 80%
07:00 +7°C° 0 mm 3 mps 742 mmHg 79%
08:00 +7°C° 0 mm 3 mps 743 mmHg 78%
09:00 +8°C° 0 mm 4 mps 743 mmHg 72%
10:00 +10°C° 0 mm 4 mps 743 mmHg 66%
11:00 +12°C° 0 mm 5 mps 744 mmHg 60%
12:00 +13°C° 0 mm 5 mps 744 mmHg 57%
13:00 +13°C° 0 mm 5 mps 744 mmHg 53%
14:00 +14°C° 0 mm 6 mps 744 mmHg 50%
15:00 +14°C° 0 mm 5 mps 744 mmHg 52%
16:00 +14°C° 0 mm 5 mps 744 mmHg 53%
17:00 +14°C° 0 mm 4 mps 744 mmHg 54%
18:00 +12°C° 0 mm 4 mps 744 mmHg 59%
19:00 +11°C° 0 mm 4 mps 744 mmHg 64%
20:00 +9°C° 0 mm 3 mps 744 mmHg 68%
21:00 +9°C° 0 mm 3 mps 744 mmHg 68%
22:00 +8°C° 0 mm 3 mps 745 mmHg 68%
23:00 +6°C° 0 mm 4 mps 745 mmHg 68%

Day after tomorrow, 12 April, Monday

Time Temperature Precipitation Wind Pressure Humidity
00:00 +6°C° 0 mm 4 mps 745 mmHg 69%
01:00 +5°C° 0 mm 3 mps 745 mmHg 70%
02:00 +5°C° 0 mm 3 mps 745 mmHg 72%
03:00 +4°C° 0 mm 3 mps 744 mmHg 72%
04:00 +4°C° 0 mm 3 mps 744 mmHg 73%
05:00 +3°C° 0 mm 3 mps 744 mmHg 74%
06:00 +4°C° 0 mm 4 mps 744 mmHg 70%
07:00 +5°C° 0 mm 4 mps 744 mmHg 66%
08:00 +6°C° 0 mm 5 mps 744 mmHg 63%
09:00 +8°C° 0 mm 5 mps 744 mmHg 56%
10:00 +9°C° 0 mm 6 mps 743 mmHg 50%
11:00 +11°C° 0 mm 6 mps 743 mmHg 44%
12:00 +13°C° 0 mm 6 mps 743 mmHg 42%
13:00 +13°C° 0 mm 6 mps 742 mmHg 40%
14:00 +14°C° 0 mm 6 mps 742 mmHg 38%
15:00 +14°C° 0 mm 5 mps 741 mmHg 41%
16:00 +14°C° 0 mm 4 mps 741 mmHg 43%
17:00 +13°C° 0 mm 3 mps 741 mmHg 46%
18:00 +12°C° 0 mm 3 mps 741 mmHg 50%
19:00 +11°C° 0 mm 3 mps 741 mmHg 55%
20:00 +9°C° 0 mm 2 mps 741 mmHg 59%
21:00 +8°C° 0 mm 2 mps 740 mmHg 62%
22:00 +8°C° 0 mm 2 mps 740 mmHg 64%
23:00 +7°C° 0 mm 2 mps 740 mmHg 66%

13 April, Tuesday

Time Temperature Precipitation Wind Pressure Humidity
00:00 +7°C° 0 mm 2 mps 740 mmHg 67%
01:00 +7°C° 0 mm 2 mps 740 mmHg 67%
02:00 +7°C° 0 mm 2 mps 740 mmHg 68%
03:00 +7°C° 0 mm 2 mps 740 mmHg 68%
04:00 +7°C° 0 mm 2 mps 739 mmHg 68%
05:00 +7°C° 0 mm 2 mps 739 mmHg 68%
06:00 +7°C° 0 mm 2 mps 739 mmHg 69%
07:00 +8°C° 0 mm 2 mps 739 mmHg 69%
08:00 +8°C° 0 mm 2 mps 739 mmHg 70%
09:00 +9°C° 0 mm 2 mps 739 mmHg 67%
10:00 +10°C° 0 mm 2 mps 739 mmHg 63%
11:00 +11°C° 0 mm 3 mps 739 mmHg 59%
12:00 +13°C° 0 mm 2 mps 739 mmHg 58%
13:00 +14°C° 0 mm 2 mps 739 mmHg 57%
14:00 +14°C° 0 mm 2 mps 739 mmHg 56%
15:00 +14°C° 0 mm 2 mps 739 mmHg 59%
16:00 +14°C° 0 mm 2 mps 739 mmHg 63%
17:00 +14°C° 0 mm 2 mps 739 mmHg 66%
18:00 +11°C° 0 mm 3 mps 739 mmHg 72%
19:00 +8°C° 0 mm 4 mps 739 mmHg 79%
20:00 +7°C° 0 mm 4 mps 739 mmHg 85%
21:00 +6°C° 0 mm 4 mps 739 mmHg 87%
22:00 +6°C° 0 mm 4 mps 739 mmHg 88%
23:00 +5°C° 0 mm 4 mps 739 mmHg 89%

14 April, Wednesday

Time Temperature Precipitation Wind Pressure Humidity
00:00 +5°C° 0.1 mm 4 mps 739 mmHg 89%
01:00 +3°C° 0.1 mm 5 mps 739 mmHg 90%
02:00 +3°C° 0.1 mm 5 mps 739 mmHg 90%
03:00 +3°C° 0.1 mm 5 mps 739 mmHg 89%
04:00 +3°C° 0.1 mm 5 mps 739 mmHg 89%
05:00 +2°C° 0.1 mm 5 mps 739 mmHg 89%
06:00 +2°C° 0 mm 5 mps 739 mmHg 88%
07:00 +3°C° 0 mm 5 mps 739 mmHg 87%
08:00 +3°C° 0 mm 6 mps 739 mmHg 86%
09:00 +5°C° 0 mm 5 mps 739 mmHg 83%
10:00 +6°C° 0 mm 5 mps 739 mmHg 81%
11:00 +8°C° 0 mm 5 mps 739 mmHg 78%
12:00 +8°C° 0 mm 6 mps 738 mmHg 78%
13:00 +8°C° 0 mm 6 mps 738 mmHg 78%
14:00 +9°C° 0 mm 6 mps 738 mmHg 78%
15:00 +8°C° 0.2 mm 7 mps 738 mmHg 81%
16:00 +6°C° 0.2 mm 7 mps 738 mmHg 84%
17:00 +5°C° 0.2 mm 7 mps 738 mmHg 88%
18:00 +5°C° 0.3 mm 7 mps 738 mmHg 88%
19:00 +5°C° 0.3 mm 7 mps 738 mmHg 89%
20:00 +4°C° 0.3 mm 7 mps 738 mmHg 90%
21:00 +4°C° 0.1 mm 7 mps 739 mmHg 90%
22:00 +4°C° 0.1 mm 6 mps 739 mmHg 90%
23:00 +3°C° 0.1 mm 6 mps 739 mmHg 90%

15 April, Thursday

Time Temperature Precipitation Wind Pressure Humidity
00:00 +3°C° 0 mm 6 mps 739 mmHg 90%
01:00 +3°C° 0 mm 6 mps 739 mmHg 91%
02:00 +3°C° 0 mm 5 mps 739 mmHg 92%
03:00 +2°C° 0 mm 5 mps 739 mmHg 92%
04:00 +2°C° 0 mm 5 mps 739 mmHg 92%
05:00 +2°C° 0 mm 5 mps 739 mmHg 92%
06:00 +3°C° 0 mm 5 mps 740 mmHg 91%
07:00 +3°C° 0 mm 5 mps 740 mmHg 90%
08:00 +5°C° 0 mm 5 mps 740 mmHg 89%
09:00 +4°C° 0 mm 6 mps 740 mmHg 87%
10:00 +4°C° 0 mm 6 mps 741 mmHg 85%
11:00 +5°C° 0 mm 6 mps 741 mmHg 83%
12:00 +5°C° 0 mm 7 mps 741 mmHg 81%
13:00 +6°C° 0 mm 7 mps 741 mmHg 79%
14:00 +6°C° 0 mm 7 mps 741 mmHg 77%
15:00 +6°C° 0 mm 7 mps 741 mmHg 76%
16:00 +5°C° 0 mm 7 mps 741 mmHg 75%
17:00 +4°C° 0 mm 7 mps 742 mmHg 74%
18:00 +4°C° 0 mm 6 mps 742 mmHg 70%
19:00 +4°C° 0 mm 6 mps 742 mmHg 66%
20:00 +4°C° 0 mm 6 mps 742 mmHg 62%
21:00 +3°C° 0 mm 6 mps 742 mmHg 60%
22:00 +3°C° 0 mm 6 mps 743 mmHg 59%
23:00 +2°C° 0 mm 7 mps 743 mmHg 58%
Show more